Location: Newark
(23.6000°N, 58.5500°E)
Time: 14:23:56
(UTC+00:00)

N. Korean satellite - Visible Passes

Search period start: 23 September 2020 00:00
Search period end: 03 October 2020 00:00
Orbit: 455 x 503 km, 97.2° (Epoch: 22 September)

Date Brightness Start Highest point End Pass type
(mag) Time Alt. Az. Time Alt. Az. Time Alt. Az.
24 Sep 8.0 01:10:14 10° NNE 01:13:40 41° E 01:16:59 10° S visible
25 Sep 9.7 00:45:13 10° NE 00:47:35 17° E 00:49:55 10° SE visible
27 Sep 6.7 01:25:22 10° NNE 01:28:55 78° E 01:32:25 10° S visible
28 Sep 8.8 00:59:48 10° NE 01:02:53 28° E 01:05:56 10° SSE visible
29 Sep 10.1 00:35:34 10° ENE 00:36:47 11° E 00:38:00 10° ESE visible
01 Oct 7.5 01:14:43 10° NNE 01:18:09 50° E 01:21:31 10° S visible
02 Oct 9.5 00:49:30 10° NE 00:52:05 19° E 00:54:38 10° SE visible
